Location: Karcze
(52.0945°N, 22.4786°E)
Time: 23:39:31
(UTC+00:00)

Transit 2A Rocket - All Passes

Search period start: 28 July 2021 00:00
Search period end: 07 August 2021 00:00
Orbit: 589 x 913 km, 66.7° (Epoch: 28 July)

Date Brightness Start Highest point End Pass type
(mag) Time Alt. Az. Time Alt. Az. Time Alt. Az.
28 Jul - 13:20:17 10° S 13:24:24 38° ESE 13:28:52 10° NE daylight
28 Jul - 15:02:36 10° WSW 15:06:57 42° NW 15:11:42 10° NNE daylight
28 Jul - 16:47:32 10° WNW 16:50:51 18° NNW 16:54:22 10° NNE daylight
28 Jul - 18:32:02 10° NNW 18:35:23 17° NNE 18:38:55 10° NE daylight
28 Jul - 20:14:39 10° NNW 20:19:28 35° NE 20:24:38 10° E visible
28 Jul - 21:57:05 10° NW 22:02:27 69° SW 22:08:15 10° SSE visible
28 Jul - 23:41:17 10° WNW 23:44:16 15° WSW 23:47:22 10° SW visible
29 Jul - 12:38:29 10° SSE 12:42:02 24° ESE 12:45:49 10° ENE daylight
29 Jul - 14:19:40 10° SW 14:24:09 62° NW 14:29:04 10° NE daylight
29 Jul - 16:04:06 10° WNW 16:07:44 21° NNW 16:11:37 10° NNE daylight
29 Jul - 17:49:05 10° NW 17:52:12 16° N 17:55:29 10° NE daylight
29 Jul - 19:32:04 10° NNW 19:36:30 27° NNE 19:41:15 10° E visible
29 Jul - 21:14:24 10° NW 21:19:49 82° NE 21:25:40 10° SE visible
29 Jul - 22:57:42 10° WNW 23:01:58 23° WSW 23:06:27 10° SSW visible
30 Jul - 11:57:23 10° SE 11:59:47 14° ESE 12:02:15 10° ENE daylight
30 Jul - 13:36:58 10° SW 13:41:28 86° SE 13:46:24 10° NE daylight
30 Jul - 15:20:44 10° W 15:24:41 26° NNW 15:28:57 10° NNE daylight
30 Jul - 17:05:56 10° NW 17:09:00 16° N 17:12:14 10° NE daylight
30 Jul - 18:49:26 10° NNW 18:53:28 22° NNE 18:57:44 10° ENE daylight
30 Jul - 20:31:48 10° NW 20:37:05 58° NE 20:42:48 10° SE visible
30 Jul - 22:14:36 10° NW 22:19:34 35° WSW 22:24:49 10° S visible
31 Jul - 12:54:32 10° SSW 12:58:54 53° ESE 13:03:39 10° NE daylight
31 Jul - 14:37:29 10° WSW 14:41:43 34° NW 14:46:19 10° NNE daylight
31 Jul - 16:22:36 10° NW 16:25:49 17° N 16:29:12 10° NNE daylight
31 Jul - 18:06:43 10° NNW 18:10:21 19° NNE 18:14:11 10° ENE daylight
31 Jul - 19:49:13 10° NNW 19:54:15 42° NE 19:59:43 10° ESE visible
31 Jul - 21:31:45 10° NW 21:37:03 53° WSW 21:42:45 10° SSE visible
31 Jul - 23:17:28 10° W 23:18:39 11° WSW 23:19:50 10° WSW visible
01 Aug - 12:12:28 10° S 12:16:28 32° ESE 12:20:45 10° NE daylight
01 Aug - 13:54:25 10° WSW 13:58:51 48° NW 14:03:43 10° NNE daylight
01 Aug - 15:39:11 10° WNW 15:42:39 19° NNW 15:46:21 10° NNE daylight
01 Aug - 17:23:52 10° NNW 17:27:11 17° N 17:30:40 10° NE daylight
01 Aug - 19:06:38 10° NNW 19:11:21 32° NNE 19:16:25 10° E visible
01 Aug - 20:49:02 10° NW 20:54:28 79° SW 21:00:21 10° SSE visible
01 Aug - 22:32:48 10° WNW 22:36:25 18° WSW 22:40:09 10° SSW visible
02 Aug - 11:30:52 10° SSE 11:34:08 20° ESE 11:37:35 10° ENE daylight
02 Aug - 13:11:33 10° SW 13:16:05 73° NW 13:21:05 10° NE daylight
02 Aug - 14:55:46 10° WNW 14:59:33 23° NNW 15:03:38 10° NNE daylight
02 Aug - 16:40:51 10° NW 16:43:59 16° N 16:47:17 10° NE daylight
02 Aug - 18:24:01 10° NNW 18:28:22 25° NNE 18:32:59 10° E daylight
02 Aug - 20:06:23 10° NW 20:11:48 73° NE 20:17:39 10° SE visible
02 Aug - 21:49:28 10° WNW 21:54:04 27° WSW 21:58:54 10° SSW visible
03 Aug - 10:50:15 10° SE 10:51:55 12° ESE 10:53:36 10° E daylight
03 Aug - 12:28:57 10° SSW 12:33:27 73° SE 12:38:24 10° NE daylight
03 Aug - 14:12:26 10° W 14:16:32 29° NNW 14:20:58 10° NNE daylight
03 Aug - 15:57:38 10° NW 16:00:47 16° N 16:04:06 10° NE daylight
03 Aug - 17:41:22 10° NNW 17:45:17 21° NNE 17:49:28 10° ENE daylight
03 Aug - 19:23:47 10° NNW 19:29:02 51° NE 19:34:42 10° ESE visible
03 Aug - 21:06:29 10° NW 21:11:38 41° WSW 21:17:06 10° S visible
04 Aug - 11:46:38 10° S 11:50:55 45° ESE 11:55:36 10° NE daylight
04 Aug - 13:29:15 10° WSW 13:33:36 39° NW 13:38:21 10° NNE daylight
04 Aug - 15:14:15 10° NW 15:17:36 18° NNW 15:21:08 10° NNE daylight
04 Aug - 16:58:36 10° NNW 17:02:09 18° NNE 17:05:54 10° ENE daylight
04 Aug - 18:41:12 10° NNW 18:46:11 38° NE 18:51:32 10° ESE daylight
04 Aug - 20:23:41 10° NW 20:29:05 62° WSW 20:34:54 10° SSE visible
04 Aug - 22:08:19 10° WNW 22:10:49 13° WSW 22:13:22 10° SW visible
05 Aug - 11:04:42 10° S 11:08:32 28° ESE 11:12:38 10° NE daylight
05 Aug - 12:46:15 10° WSW 12:50:46 56° NW 12:55:45 10° NE daylight
05 Aug - 14:30:50 10° WNW 14:34:28 21° NNW 14:38:20 10° NNE daylight
05 Aug - 16:15:41 10° NNW 16:18:58 17° N 16:22:26 10° NE daylight
05 Aug - 17:58:36 10° NNW 18:03:14 29° NNE 18:08:12 10° E daylight
05 Aug - 19:40:59 10° NW 19:46:28 90° SW 19:52:23 10° SE visible
05 Aug - 21:24:27 10° WNW 21:28:32 21° WSW 21:32:46 10° SSW visible
06 Aug - 10:23:20 10° SSE 10:26:14 17° ESE 10:29:17 10° ENE daylight
06 Aug - 12:03:28 10° SW 12:08:03 85° NW 12:13:05 10° NE daylight
06 Aug - 13:47:26 10° W 13:51:23 25° NNW 13:55:38 10° NNE daylight
06 Aug - 15:32:35 10° NW 15:35:46 16° N 15:39:07 10° NE daylight
06 Aug - 17:15:58 10° NNW 17:20:12 24° NNE 17:24:42 10° ENE daylight
06 Aug - 18:58:21 10° NW 19:03:45 64° NE 19:09:36 10° SE visible
06 Aug - 20:41:17 10° NW 20:46:09 32° WSW 20:51:17 10° S visible
